Marrakech, Morocco

1:25 AM WET on December 12, 2017 (GMT +0000)
Marrakech

Weather History for GMMX - February, 2014

Change the Weather History Date:

Monday, February 3, 2014

  Actual Average Record
Temperature  
Mean Temperature 56 °F -  
Max Temperature 65 °F 68 °F 78 °F (2000)
Min Temperature 46 °F 46 °F 33 °F (2011)
Degree Days  
Heating Degree Days 10    
Growing Degree Days 6 (Base 50)    
Moisture  
Dew Point 48 °F    
Average Humidity 81    
Maximum Humidity 100    
Minimum Humidity 40    
Precipitation  
Precipitation 0.00 in 0.05 in - ()
Sea Level Pressure  
Sea Level Pressure 30.08 in    
Wind  
Wind Speed 3 mph ()    
Max Wind Speed 9 mph    
Max Gust Speed -    
Visibility 5.3 miles    
Events      
Averages and records for this station are not official NWS values.
T = Trace of Precipitation, MM = Missing Value Source: Averaged Metar Reports

Daily Weather History Graph

Daily Weather History Graph

Search for Another Location

Airport or City:

Trip Planner

Search our weather history database for the weather conditions in past years. The results will help you decide how hot, cold, wet, or windy it might be!

Date:

Astronomy

Feb. 03, 2014 Rise Set
Actual Time 7:23 AM WET 6:08 PM WET
Civil Twilight 6:58 AM WET 6:33 PM WET
Nautical Twilight 6:29 AM WET 7:02 PM WET
Astronomical Twilight 6:00 AM WET 7:31 PM WET
Moon 9:36 AM WET (2/3) 10:23 PM WET (2/3)
Length of Visible Light 11h 35m
Length of Day
10h 44m
Waxing Crescent, 17% of the Moon is Illuminated
Feb 3
Waxing Crescent
Feb 6
First Quarter
Feb 14
Full
Feb 22
Last Quarter
Mar 1
New

Hourly Weather History & Observations

Time (WET) Temp. Dew Point Humidity Pressure Visibility Wind Dir Wind Speed Gust Speed Precip Events Conditions
12:00 AM 51 °F 49 °F 91% 30.09 in 6 mi NNW 2.3 mph - -   Partly Cloudy
12:00 AM 51.8 °F 50.0 °F 94% 30.06 in 6.2 mi Variable 2.3 mph - N/A   Scattered Clouds
12:30 AM 50.0 °F 48.2 °F 94% 30.06 in 6.2 mi Variable 1.2 mph - N/A   Scattered Clouds
1:00 AM 50.0 °F 48.2 °F 94% 30.06 in 5.6 mi South 8.1 mph - N/A   Scattered Clouds
1:30 AM 50.0 °F 50.0 °F 100% 30.06 in 6.2 mi South 6.9 mph - N/A   Unknown
2:00 AM 50.0 °F 50.0 °F 100% 30.06 in 6.2 mi SSE 3.5 mph - N/A   Mostly Cloudy
2:30 AM 50.0 °F 50.0 °F 100% 30.06 in 6.2 mi Variable 1.2 mph - N/A   Mostly Cloudy
3:00 AM 50 °F 49 °F 95% 30.08 in 6 mi Calm Calm - -   Mostly Cloudy
3:00 AM 50.0 °F 50.0 °F 100% 30.06 in 6.2 mi Calm Calm - N/A   Mostly Cloudy
3:30 AM 50.0 °F 50.0 °F 100% 30.06 in 5.6 mi Calm Calm - N/A   Unknown
4:00 AM 48.2 °F 48.2 °F 100% 30.06 in 3.7 mi Calm Calm - N/A   Scattered Clouds
4:30 AM 48.2 °F 48.2 °F 100% 30.06 in 5.0 mi Calm Calm - N/A   Scattered Clouds
5:00 AM 48.2 °F 48.2 °F 100% 30.06 in 4.3 mi West 3.5 mph - N/A   Scattered Clouds
5:30 AM 48.2 °F 48.2 °F 100% 30.06 in 5.0 mi West 3.5 mph - N/A   Scattered Clouds
6:00 AM 47 °F 47 °F 100% 30.10 in 4 mi WSW 2.3 mph - -   Partly Cloudy
6:00 AM 48.2 °F 48.2 °F 100% 30.06 in 3.7 mi WSW 2.3 mph - N/A   Scattered Clouds
6:30 AM 46.4 °F 46.4 °F 100% 30.06 in 3.1 mi West 2.3 mph - N/A   Mostly Cloudy
7:00 AM 48.2 °F 48.2 °F 100% 30.09 in 3.7 mi West 3.5 mph - N/A   Mostly Cloudy
7:30 AM 48.2 °F 48.2 °F 100% 30.09 in 4.3 mi South 3.5 mph - N/A   Mostly Cloudy
7:57 AM 48.2 °F 48.2 °F 100% 30.09 in 2.5 mi South 1.2 mph - N/A   Mostly Cloudy
8:00 AM 50.0 °F 50.0 °F 100% 30.09 in 5.0 mi Variable 1.2 mph - N/A   Mostly Cloudy
8:30 AM 50.0 °F 50.0 °F 100% 30.09 in 2.5 mi Variable 1.2 mph - N/A   Mostly Cloudy
9:00 AM 50 °F 50 °F 100% 30.13 in 1 mi SSE 2.3 mph - -   Overcast
9:00 AM 50.0 °F 50.0 °F 100% 30.09 in 1.2 mi SSE 2.3 mph - N/A   Overcast
9:30 AM 51.8 °F 51.8 °F 100% 30.12 in 1.2 mi Variable 2.3 mph - N/A   Mostly Cloudy
10:00 AM 53.6 °F 51.8 °F 94% 30.12 in 2.5 mi Calm Calm - N/A   Scattered Clouds
10:15 AM 53.6 °F 51.8 °F 94% 30.12 in 3.1 mi SSE 4.6 mph - N/A   Scattered Clouds
10:30 AM 53.6 °F 51.8 °F 94% 30.12 in 3.1 mi SSE 4.6 mph - N/A   Scattered Clouds
11:00 AM 57.2 °F 50.0 °F 77% 30.12 in 6.2 mi Variable 2.3 mph - N/A   Scattered Clouds
11:30 AM 57.2 °F 50.0 °F 77% 30.09 in 6.2 mi North 3.5 mph - N/A   Scattered Clouds
12:00 PM 59 °F 50 °F 64% 30.08 in 6 mi North 3.5 mph - -   Scattered Clouds
12:00 PM 59.0 °F 50.0 °F 72% 30.09 in 6.2 mi Variable 3.5 mph - N/A   Scattered Clouds
12:30 PM 59.0 °F 50.0 °F 72% 30.09 in 6.2 mi NNW 4.6 mph - N/A   Scattered Clouds
1:00 PM 62.6 °F 48.2 °F 59% 30.06 in 6.2 mi Calm Calm - N/A   Scattered Clouds
1:30 PM 62.6 °F 48.2 °F 59% 30.06 in 6.2 mi NNW 3.5 mph - N/A   Partly Cloudy
2:00 PM 64.4 °F 44.6 °F 49% 30.06 in 6.2 mi Variable 2.3 mph - N/A   Partly Cloudy
2:30 PM 64.4 °F 48.2 °F 56% 30.04 in 6.2 mi West 3.5 mph - N/A   Partly Cloudy
3:00 PM 65 °F 47 °F 40% 30.01 in 6 mi West 4.6 mph - -   Scattered Clouds
3:00 PM 66.2 °F 46.4 °F 49% 30.04 in 6.2 mi West 4.6 mph - N/A   Partly Cloudy
3:30 PM 66.2 °F 46.4 °F 49% 30.04 in 6.2 mi NW 3.5 mph - N/A   Partly Cloudy
4:00 PM 64.4 °F 48.2 °F 56% 30.04 in 6.2 mi NW 6.9 mph - N/A   Partly Cloudy
4:30 PM 64.4 °F 46.4 °F 52% 30.04 in 6.2 mi NNW 9.2 mph - N/A   Partly Cloudy
5:00 PM 64.4 °F 44.6 °F 49% 30.04 in 6.2 mi WNW 6.9 mph - N/A   Partly Cloudy
5:30 PM 62.6 °F 44.6 °F 52% 30.04 in 6.2 mi WNW 5.8 mph - N/A   Partly Cloudy
6:00 PM 62 °F 44 °F 40% 30.03 in 6 mi WNW 5.8 mph - -   Scattered Clouds
6:00 PM 62.6 °F 42.8 °F 48% 30.04 in 6.2 mi WNW 5.8 mph - N/A   Scattered Clouds
6:30 PM 59.0 °F 44.6 °F 59% 30.06 in 6.2 mi West 5.8 mph - N/A   Scattered Clouds
7:00 PM 59.0 °F 46.4 °F 63% 30.06 in 6.2 mi West 6.9 mph - N/A   Scattered Clouds
7:30 PM 57.2 °F 46.4 °F 67% 30.09 in 6.2 mi WSW 4.6 mph - N/A   Scattered Clouds
8:00 PM 57.2 °F 48.2 °F 72% 30.09 in 6.2 mi NNW 5.8 mph - N/A   Scattered Clouds
8:30 PM 55.4 °F 50.0 °F 82% 30.12 in 6.2 mi SW 5.8 mph - N/A   Scattered Clouds
9:00 PM 55 °F 48 °F 71% 30.11 in 6 mi SW 6.9 mph - -   Partly Cloudy
9:00 PM 55.4 °F 48.2 °F 77% 30.12 in 6.2 mi SW 6.9 mph - N/A   Scattered Clouds
9:30 PM 53.6 °F 48.2 °F 82% 30.12 in 6.2 mi SW 6.9 mph - N/A   Scattered Clouds
10:00 PM 51.8 °F 48.2 °F 88% 30.12 in 6.2 mi West 3.5 mph - N/A   Scattered Clouds
10:30 PM 51.8 °F 48.2 °F 88% 30.15 in 6.2 mi West 4.6 mph - N/A   Scattered Clouds
11:00 PM 50.0 °F 48.2 °F 94% 30.15 in 6.2 mi WSW 3.5 mph - N/A   Scattered Clouds
11:30 PM 51.8 °F 48.2 °F 88% 30.15 in 6.2 mi SSW 6.9 mph - N/A   Mostly Cloudy